When you browse on this site, cookies collect data to enhance your experience and personalize the content and advertising you see.
Visit our Privacy Policy to learn more. By continuing to use the site, you agree to this use of cookies and data.
  • In Latvia
  • List of Countries
  • For 7 days
  • Water Temperature
  • Satellite Maps
  • Weather Map
  • Weather Widgets
  • user-avatar
    Login

    Hourly Weather Kamennomostskiy

    Today, 25 March, Monday

    Time Temperature Precipitation Wind Pressure Humidity
    00:00 0°C° 0 mm 1 mps 726 mmHg 78%
    01:00 0°C° 0 mm 1 mps 725 mmHg 76%
    02:00 0°C° 0 mm 1 mps 725 mmHg 74%
    03:00 0°C° 0 mm 1 mps 725 mmHg 74%
    04:00 0°C° 0 mm 1 mps 725 mmHg 72%
    05:00 0°C° 0 mm 1 mps 725 mmHg 70%
    06:00 0°C° 0 mm 1 mps 725 mmHg 67%
    07:00 +2°C° 0 mm 1 mps 725 mmHg 60%
    08:00 +5°C° 0 mm 1 mps 725 mmHg 52%
    09:00 +6°C° 0 mm 0 mps 725 mmHg 45%
    10:00 +8°C° 0 mm 1 mps 724 mmHg 43%
    11:00 +9°C° 0 mm 1 mps 724 mmHg 41%
    12:00 +10°C° 0 mm 1 mps 724 mmHg 40%
    13:00 +9°C° 0 mm 2 mps 724 mmHg 42%
    14:00 +10°C° 0 mm 2 mps 724 mmHg 44%
    15:00 +10°C° 0 mm 2 mps 724 mmHg 44%
    16:00 +8°C° 0 mm 2 mps 723 mmHg 50%
    17:00 +8°C° 0 mm 1 mps 723 mmHg 57%
    18:00 +7°C° 0 mm 1 mps 723 mmHg 63%
    19:00 +6°C° 0 mm 1 mps 723 mmHg 68%
    20:00 +4°C° 0 mm 1 mps 723 mmHg 73%
    21:00 +3°C° 0 mm 1 mps 723 mmHg 77%
    22:00 +3°C° 0 mm 1 mps 723 mmHg 76%
    23:00 +3°C° 0 mm 1 mps 723 mmHg 75%

    Tomorrow, 26 March, Tuesday

    Time Temperature Precipitation Wind Pressure Humidity
    00:00 +3°C° 0 mm 1 mps 723 mmHg 74%
    01:00 +3°C° 0 mm 1 mps 723 mmHg 72%
    02:00 +3°C° 0 mm 1 mps 723 mmHg 70%
    03:00 +3°C° 0 mm 1 mps 722 mmHg 69%
    04:00 +3°C° 0 mm 1 mps 722 mmHg 67%
    05:00 +3°C° 0 mm 1 mps 722 mmHg 65%
    06:00 +3°C° 0 mm 1 mps 722 mmHg 63%
    07:00 +6°C° 0 mm 1 mps 722 mmHg 56%
    08:00 +8°C° 0 mm 1 mps 723 mmHg 48%
    09:00 +10°C° 0 mm 0 mps 723 mmHg 41%
    10:00 +12°C° 0 mm 1 mps 723 mmHg 40%
    11:00 +13°C° 0 mm 1 mps 722 mmHg 38%
    12:00 +14°C° 0 mm 2 mps 722 mmHg 37%
    13:00 +14°C° 0 mm 2 mps 722 mmHg 38%
    14:00 +14°C° 0 mm 2 mps 722 mmHg 39%
    15:00 +14°C° 0 mm 2 mps 722 mmHg 40%
    16:00 +13°C° 0 mm 2 mps 721 mmHg 46%
    17:00 +12°C° 0 mm 1 mps 721 mmHg 52%
    18:00 +11°C° 0 mm 1 mps 721 mmHg 58%
    19:00 +9°C° 0 mm 1 mps 721 mmHg 62%
    20:00 +8°C° 0 mm 1 mps 721 mmHg 65%
    21:00 +7°C° 0 mm 1 mps 721 mmHg 69%
    22:00 +6°C° 0 mm 1 mps 721 mmHg 70%
    23:00 +6°C° 0 mm 1 mps 721 mmHg 71%

    Day after tomorrow, 27 March, Wednesday

    Time Temperature Precipitation Wind Pressure Humidity
    00:00 +6°C° 0 mm 1 mps 721 mmHg 72%
    01:00 +6°C° 0 mm 1 mps 721 mmHg 73%
    02:00 +6°C° 0 mm 1 mps 721 mmHg 73%
    03:00 +5°C° 0 mm 1 mps 721 mmHg 74%
    04:00 +5°C° 0 mm 1 mps 721 mmHg 73%
    05:00 +5°C° 0 mm 1 mps 722 mmHg 73%
    06:00 +5°C° 0 mm 1 mps 722 mmHg 72%
    07:00 +7°C° 0 mm 1 mps 722 mmHg 65%
    08:00 +10°C° 0 mm 1 mps 722 mmHg 57%
    09:00 +12°C° 0 mm 1 mps 723 mmHg 50%
    10:00 +13°C° 0 mm 1 mps 723 mmHg 49%
    11:00 +14°C° 0 mm 2 mps 723 mmHg 48%
    12:00 +15°C° 0 mm 2 mps 724 mmHg 47%
    13:00 +14°C° 0 mm 3 mps 724 mmHg 48%
    14:00 +14°C° 0 mm 3 mps 724 mmHg 49%
    15:00 +13°C° 0 mm 3 mps 724 mmHg 50%
    16:00 +12°C° 0 mm 3 mps 724 mmHg 55%
    17:00 +11°C° 0 mm 3 mps 724 mmHg 59%
    18:00 +10°C° 0 mm 3 mps 725 mmHg 64%
    19:00 +9°C° 0.1 mm 2 mps 725 mmHg 71%
    20:00 +8°C° 0.1 mm 2 mps 726 mmHg 78%
    21:00 +7°C° 0.1 mm 2 mps 726 mmHg 84%
    22:00 +6°C° 0.1 mm 2 mps 727 mmHg 84%
    23:00 +6°C° 0.1 mm 2 mps 727 mmHg 83%

    28 March, Thursday

    Time Temperature Precipitation Wind Pressure Humidity
    00:00 +5°C° 0.1 mm 2 mps 727 mmHg 82%
    01:00 +5°C° 0 mm 2 mps 727 mmHg 81%
    02:00 +5°C° 0 mm 1 mps 727 mmHg 80%
    03:00 +5°C° 0 mm 1 mps 727 mmHg 80%
    04:00 +5°C° 0 mm 1 mps 727 mmHg 80%
    05:00 +4°C° 0 mm 1 mps 727 mmHg 80%
    06:00 +4°C° 0 mm 1 mps 727 mmHg 80%
    07:00 +5°C° 0.2 mm 1 mps 727 mmHg 79%
    08:00 +5°C° 0.2 mm 1 mps 727 mmHg 78%
    09:00 +4°C° 0.2 mm 2 mps 727 mmHg 77%
    10:00 +5°C° 0.3 mm 2 mps 727 mmHg 74%
    11:00 +6°C° 0.3 mm 2 mps 727 mmHg 71%
    12:00 +5°C° 0.3 mm 3 mps 727 mmHg 68%
    13:00 +7°C° 0.1 mm 3 mps 727 mmHg 63%
    14:00 +6°C° 0.1 mm 4 mps 727 mmHg 59%
    15:00 +7°C° 0.1 mm 4 mps 727 mmHg 54%
    16:00 +6°C° 0 mm 4 mps 727 mmHg 57%
    17:00 +5°C° 0 mm 4 mps 727 mmHg 60%
    18:00 +4°C° 0 mm 3 mps 727 mmHg 63%
    19:00 +3°C° 0 mm 3 mps 728 mmHg 69%
    20:00 +2°C° 0 mm 2 mps 728 mmHg 75%
    21:00 +1°C° 0 mm 2 mps 728 mmHg 81%
    22:00 +1°C° 0 mm 2 mps 729 mmHg 82%
    23:00 +1°C° 0 mm 1 mps 729 mmHg 84%

    29 March, Friday

    Time Temperature Precipitation Wind Pressure Humidity
    00:00 +1°C° 0 mm 1 mps 729 mmHg 85%
    01:00 0°C° 0 mm 1 mps 729 mmHg 85%
    02:00 0°C° 0 mm 1 mps 729 mmHg 86%
    03:00 0°C° 0 mm 1 mps 729 mmHg 86%
    04:00 0°C° 0 mm 1 mps 729 mmHg 86%
    05:00 0°C° 0 mm 1 mps 730 mmHg 86%
    06:00 0°C° 0 mm 1 mps 730 mmHg 85%
    07:00 +2°C° 0 mm 1 mps 730 mmHg 76%
    08:00 +3°C° 0 mm 1 mps 730 mmHg 66%
    09:00 +5°C° 0 mm 1 mps 731 mmHg 56%
    10:00 +5°C° 0 mm 2 mps 730 mmHg 50%
    11:00 +6°C° 0 mm 2 mps 730 mmHg 43%
    12:00 +7°C° 0 mm 2 mps 730 mmHg 37%
    13:00 +7°C° 0 mm 2 mps 730 mmHg 37%
    14:00 +8°C° 0 mm 2 mps 729 mmHg 38%
    15:00 +8°C° 0 mm 2 mps 729 mmHg 39%
    16:00 +7°C° 0 mm 2 mps 728 mmHg 44%
    17:00 +6°C° 0 mm 2 mps 728 mmHg 49%
    18:00 +6°C° 0 mm 1 mps 728 mmHg 54%
    19:00 +5°C° 0 mm 1 mps 728 mmHg 59%
    20:00 +3°C° 0 mm 1 mps 728 mmHg 64%
    21:00 +2°C° 0 mm 1 mps 728 mmHg 69%
    22:00 +1°C° 0 mm 1 mps 728 mmHg 70%
    23:00 +1°C° 0 mm 1 mps 728 mmHg 71%

    30 March, Saturday

    Time Temperature Precipitation Wind Pressure Humidity
    00:00 +1°C° 0 mm 1 mps 728 mmHg 72%
    01:00 -1°C° 0 mm 2 mps 728 mmHg 73%
    02:00 -1°C° 0 mm 2 mps 727 mmHg 73%
    03:00 -1°C° 0 mm 2 mps 727 mmHg 74%
    04:00 -1°C° 0 mm 2 mps 727 mmHg 75%
    05:00 -1°C° 0 mm 2 mps 727 mmHg 76%
    06:00 -1°C° 0 mm 2 mps 727 mmHg 76%
    07:00 +1°C° 0 mm 3 mps 727 mmHg 66%
    08:00 +3°C° 0 mm 3 mps 727 mmHg 55%
    09:00 +5°C° 0 mm 4 mps 727 mmHg 45%
    10:00 +5°C° 0 mm 4 mps 727 mmHg 49%
    11:00 +6°C° 0 mm 4 mps 727 mmHg 53%
    12:00 +6°C° 0 mm 4 mps 727 mmHg 57%
    13:00 +7°C° 0 mm 4 mps 727 mmHg 56%
    14:00 +7°C° 0 mm 4 mps 727 mmHg 55%
    15:00 +8°C° 0 mm 4 mps 727 mmHg 54%
    16:00 +8°C° 0 mm 3 mps 727 mmHg 59%
    17:00 +7°C° 0 mm 2 mps 727 mmHg 65%
    18:00 +6°C° 0 mm 2 mps 727 mmHg 71%
    19:00 +5°C° 0 mm 1 mps 727 mmHg 76%
    20:00 +4°C° 0 mm 1 mps 728 mmHg 80%
    21:00 +3°C° 0 mm 1 mps 728 mmHg 85%
    22:00 +2°C° 0 mm 1 mps 728 mmHg 83%
    23:00 +2°C° 0 mm 1 mps 728 mmHg 81%
    Show more